Weather History for KSJX - October, 2011

Change the Weather History Date:

Monday, October 31, 2011

  Actual Average Record
Temperature  
Mean Temperature 48 °F -  
Max Temperature 51 °F 52 °F 67 °F (1956)
Min Temperature 44 °F 37 °F 26 °F (1992)
Degree Days  
Heating Degree Days 18    
Moisture  
Dew Point 40 °F    
Average Humidity 76    
Maximum Humidity 87    
Minimum Humidity 66    
Precipitation  
Precipitation 0.00 in - - ()
Sea Level Pressure  
Sea Level Pressure 29.97 in    
Wind  
Wind Speed 8 mph (South)    
Max Wind Speed 14 mph    
Max Gust Speed 18 mph    
Visibility 10 miles    
Events      
Averages and records for this station are not official NWS values.
T = Trace of Precipitation, MM = Missing Value Source: NWS Daily Summary

Daily Weather History Graph

Daily Weather History Graph

Search for Another Location

Airport or City:

Trip Planner

Search our weather history database for the weather conditions in past years. The results will help you decide how hot, cold, wet, or windy it might be!

Date:

Astronomy

Oct. 31, 2011 Rise Set
Actual Time 8:20 AM EDT 6:30 PM EDT
Civil Twilight 7:49 AM EDT 7:01 PM EDT
Nautical Twilight 7:14 AM EDT 7:36 PM EDT
Astronomical Twilight 6:39 AM EDT 8:11 PM EDT
Moon 1:33 PM EDT (10/31) 11:00 PM EDT (10/31)
Length of Visible Light 11h 12m
Length of Day
10h 10m
Waxing Crescent, 29% of the Moon is Illuminated
Oct 31
Waxing Crescent
Nov 2
First Quarter
Nov 10
Full
Nov 18
Last Quarter
Nov 25
New

Hourly Weather History & Observations

Time (EDT) Temp. Windchill Dew Point Humidity Pressure Visibility Wind Dir Wind Speed Gust Speed Precip Events Conditions
12:15 AM 44.6 °F 39.2 °F 37.4 °F 76% 29.97 in 10.0 mi ESE 10.4 mph - N/A   Overcast
12:35 AM 44.6 °F 40.2 °F 37.4 °F 76% 29.96 in 10.0 mi ESE 8.1 mph - N/A   Light Drizzle
12:55 AM 44.6 °F 40.2 °F 37.4 °F 76% 29.95 in 10.0 mi ESE 8.1 mph - N/A   Overcast
1:15 AM 44.6 °F 40.2 °F 37.4 °F 76% 29.95 in 10.0 mi ESE 8.1 mph - N/A   Overcast
1:35 AM 46.4 °F 41.9 °F 35.6 °F 66% 29.95 in 10.0 mi ESE 9.2 mph - N/A   Overcast
1:55 AM 46.4 °F 42.9 °F 35.6 °F 66% 29.95 in 10.0 mi SE 6.9 mph - N/A   Overcast
2:15 AM 46.4 °F 43.5 °F 35.6 °F 66% 29.95 in 10.0 mi SE 5.8 mph - N/A   Overcast
2:36 AM 46.4 °F 43.5 °F 35.6 °F 66% 29.95 in 10.0 mi SE 5.8 mph - N/A   Overcast
2:55 AM 46.4 °F 42.9 °F 35.6 °F 66% 29.95 in 10.0 mi SE 6.9 mph - N/A   Overcast
3:15 AM 46.4 °F 43.5 °F 37.4 °F 71% 29.95 in 10.0 mi SE 5.8 mph - N/A   Light Drizzle
3:36 AM 46.4 °F 42.9 °F 37.4 °F 71% 29.94 in 10.0 mi SSE 6.9 mph - N/A   Overcast
3:55 AM 46.4 °F 42.4 °F 37.4 °F 71% 29.94 in 10.0 mi SSE 8.1 mph - N/A   Overcast
4:15 AM 46.4 °F 41.9 °F 37.4 °F 71% 29.93 in 10.0 mi SSE 9.2 mph 16.1 mph N/A   Overcast
4:35 AM 46.4 °F 43.5 °F 37.4 °F 71% 29.93 in 10.0 mi South 5.8 mph - N/A   Overcast
4:55 AM 46.4 °F 42.9 °F 39.2 °F 76% 29.93 in 10.0 mi SSE 6.9 mph - N/A   Overcast
5:15 AM 46.4 °F 41.9 °F 41.0 °F 81% 29.93 in 10.0 mi SSE 9.2 mph - N/A   Overcast
5:35 AM 46.4 °F 44.3 °F 41.0 °F 81% 29.94 in 10.0 mi South 4.6 mph - N/A   Overcast
6:15 AM 46.4 °F 42.9 °F 41.0 °F 81% 29.93 in 10.0 mi SSE 6.9 mph - N/A   Overcast
6:35 AM 46.4 °F 41.5 °F 41.0 °F 81% 29.93 in 10.0 mi SSE 10.4 mph - N/A   Overcast
6:55 AM 46.4 °F 42.9 °F 41.0 °F 81% 29.94 in 10.0 mi SSE 6.9 mph - N/A   Overcast
7:15 AM 46.4 °F 42.4 °F 41.0 °F 81% 29.95 in 10.0 mi South 8.1 mph - N/A   Overcast
7:55 AM 46.4 °F 42.4 °F 41.0 °F 81% 29.95 in 10.0 mi South 8.1 mph - N/A   Overcast
8:16 AM 46.4 °F 43.5 °F 42.8 °F 87% 29.95 in 10.0 mi SSW 5.8 mph - N/A   Overcast
8:35 AM 46.4 °F - 42.8 °F 87% 29.96 in 10.0 mi Calm Calm - N/A   Overcast
8:55 AM 46.4 °F 44.3 °F 42.8 °F 87% 29.96 in 10.0 mi South 4.6 mph - N/A   Overcast
9:16 AM 46.4 °F 44.3 °F 42.8 °F 87% 29.97 in 10.0 mi SSW 4.6 mph - N/A   Overcast
9:35 AM 46.4 °F 43.5 °F 41.0 °F 81% 29.97 in 10.0 mi South 5.8 mph - N/A   Overcast
9:55 AM 46.4 °F 43.5 °F 42.8 °F 87% 29.97 in 10.0 mi South 5.8 mph - N/A   Overcast
10:15 AM 46.4 °F 42.4 °F 41.0 °F 81% 29.98 in 10.0 mi SSW 8.1 mph - N/A   Overcast
10:35 AM 48.2 °F - 42.8 °F 82% 29.98 in 10.0 mi South 6.9 mph - N/A   Overcast
10:56 AM 50.0 °F - 42.8 °F 76% 29.98 in 10.0 mi SSW 5.8 mph - N/A   Overcast
11:15 AM 48.2 °F - 41.0 °F 76% 29.98 in 10.0 mi South 10.4 mph - N/A   Mostly Cloudy
11:35 AM 48.2 °F - 41.0 °F 76% 29.98 in 10.0 mi South 6.9 mph - N/A   Scattered Clouds
11:55 AM 48.2 °F - 41.0 °F 76% 29.98 in 10.0 mi SSW 9.2 mph - N/A   Mostly Cloudy
12:15 PM 48.2 °F - 41.0 °F 76% 29.99 in 10.0 mi SSW 8.1 mph - N/A   Overcast
12:36 PM 50.0 °F - 41.0 °F 71% 29.99 in 10.0 mi South 8.1 mph - N/A   Overcast
12:55 PM 48.2 °F - 41.0 °F 76% 29.99 in 10.0 mi SSW 6.9 mph - N/A   Overcast
1:15 PM 50.0 °F - 41.0 °F 71% 29.99 in 10.0 mi SSW 6.9 mph - N/A   Overcast
1:36 PM 50.0 °F - 39.2 °F 66% 29.99 in 10.0 mi SSW 9.2 mph 16.1 mph N/A   Overcast
1:55 PM 50.0 °F - 39.2 °F 66% 29.99 in 10.0 mi South 8.1 mph - N/A   Overcast
2:15 PM 51.8 °F - 41.0 °F 67% 29.98 in 10.0 mi SW 13.8 mph 17.3 mph N/A   Mostly Cloudy
2:35 PM 50.0 °F - 41.0 °F 71% 29.99 in 10.0 mi SW 8.1 mph 18.4 mph N/A   Mostly Cloudy
2:55 PM 50.0 °F - 41.0 °F 71% 29.99 in 10.0 mi WSW 11.5 mph - N/A   Mostly Cloudy
3:15 PM 50.0 °F - 41.0 °F 71% 29.99 in 10.0 mi SW 10.4 mph - N/A   Mostly Cloudy
3:36 PM 50.0 °F - 41.0 °F 71% 30.00 in 10.0 mi SW 11.5 mph - N/A   Scattered Clouds
3:55 PM 48.2 °F - 41.0 °F 76% 29.99 in 10.0 mi SW 8.1 mph - N/A   Clear
4:15 PM 50.0 °F - 41.0 °F 71% 30.00 in 10.0 mi SW 4.6 mph - N/A   Scattered Clouds
4:35 PM 48.2 °F - 39.2 °F 71% 30.00 in 10.0 mi SW 8.1 mph - N/A   Mostly Cloudy
4:55 PM 46.4 °F 44.3 °F 39.2 °F 76% 30.00 in 10.0 mi SW 4.6 mph - N/A   Overcast
5:16 PM 46.4 °F 42.4 °F 39.2 °F 76% 30.01 in 10.0 mi SW 8.1 mph - N/A   Overcast
5:35 PM 46.4 °F 42.4 °F 39.2 °F 76% 30.01 in 10.0 mi SW 8.1 mph - N/A   Overcast
5:55 PM 46.4 °F 42.9 °F 39.2 °F 76% 30.02 in 10.0 mi SW 6.9 mph - N/A   Overcast
6:16 PM 44.6 °F 40.7 °F 39.2 °F 81% 30.02 in 10.0 mi SW 6.9 mph - N/A   Overcast
6:35 PM 44.6 °F 40.7 °F 39.2 °F 81% 30.03 in 10.0 mi WSW 6.9 mph - N/A   Mostly Cloudy
6:55 PM 44.6 °F 41.4 °F 39.2 °F 81% 30.03 in 10.0 mi SW 5.8 mph - N/A   Overcast
7:16 PM 44.6 °F 40.7 °F 37.4 °F 76% 30.04 in 10.0 mi WSW 6.9 mph - N/A   Overcast
7:35 PM 44.6 °F 41.4 °F 37.4 °F 76% 30.05 in 10.0 mi SW 5.8 mph - N/A   Overcast
7:55 PM 44.6 °F 41.4 °F 39.2 °F 81% 30.05 in 10.0 mi SW 5.8 mph - N/A   Overcast
8:16 PM 44.6 °F 41.4 °F 39.2 °F 81% 30.05 in 10.0 mi WSW 5.8 mph - N/A   Overcast
8:35 PM 44.6 °F 40.7 °F 39.2 °F 81% 30.06 in 10.0 mi WSW 6.9 mph - N/A   Overcast
8:55 PM 44.6 °F 40.7 °F 37.4 °F 76% 30.06 in 10.0 mi WSW 6.9 mph - N/A   Overcast
9:15 PM 44.6 °F 41.4 °F 37.4 °F 76% 30.06 in 10.0 mi WSW 5.8 mph - N/A   Overcast
9:35 PM 44.6 °F 41.4 °F 37.4 °F 76% 30.06 in 10.0 mi SW 5.8 mph - N/A   Mostly Cloudy
9:56 PM 42.8 °F 41.1 °F 37.4 °F 81% 30.06 in 10.0 mi SSW 3.5 mph - N/A   Scattered Clouds
10:15 PM 42.8 °F - 35.6 °F 76% 30.07 in 10.0 mi Calm Calm - N/A   Clear
10:35 PM 42.8 °F - 37.4 °F 81% 30.07 in 10.0 mi Calm Calm - N/A   Scattered Clouds
10:56 PM 41.0 °F 39.0 °F 37.4 °F 87% 30.07 in 10.0 mi South 3.5 mph - N/A   Scattered Clouds
11:15 PM 41.0 °F 39.0 °F 37.4 °F 87% 30.07 in 10.0 mi South 3.5 mph - N/A   Scattered Clouds
11:35 PM 41.0 °F - 37.4 °F 87% 30.07 in 10.0 mi Calm Calm - N/A   Mostly Cloudy
11:56 PM 42.8 °F 40.1 °F 37.4 °F 81% 30.07 in 10.0 mi SSW 4.6 mph - N/A   Overcast